Погода в Ясенской Переправе

Россия / Краснодарский край     46°15′05″N   38°17′39″E
темп.,
°C
ветер,
м/с
пор.,
м/с
влажн.,
%
обл.,
%
осадки,
мм/ч
давл.,
гПа
погр.,
м
5 марта, пт
пт500:00+4юз9158394 0.0 1018336
03:00+3юз9158354 0.0 1018350
06:00+3юз915830 0.0 1016315
09:00+4юз8148228 0.0 1016309
12:00+5юз91479100 0.0 1016327
15:00+5юз9137897 0.0 1015330
18:00+5юз8137939 0.0 1015271
21:00+5ююз7118361 0.0 1016204
6 марта, сб
сб600:00+5ююз7128395 0.0 1015208
03:00+5юз7128497 0.0 1015195
06:00+5юз9148943 0.0 1013228
09:00+5юз7109355 0.0 1013206
12:00+5зюз688997 0.0 1013189
15:00+4сз799199 0.0 1014237
18:00+2ссз71176100 0.1 1017463
21:00+1ссз91365100 0.1 1021574
7 марта, вс
вс700:00−1ссз6106331 0.0 1024482
03:00−1ссз586315 0.0 1026390
06:00−2ссз46670 0.0 1027315
09:000зсз34650 0.0 1027373
12:00+1з68610 0.0 1026613
15:00+2зюз8116521 0.0 1024671
18:00+2зюз8126737 0.0 1022558
21:00+2зюз8136852 0.0 1022396
8 марта, пн
пн800:00+2з813680 0.0 1021333
03:00+2зюз8137010 0.0 1020322
06:00+2зюз812720 0.0 1019319
09:00+3зюз812719 0.0 1018492
12:00+3зюз9127035 0.0 1017519
15:00+3зюз8126645 0.0 1016540
18:00+3юз813740 0.0 1015393
21:00+3юз813782 0.0 1016343
9 марта, вт
вт900:00+3зюз7118287 0.1 1015304
03:00+2зюз8119594 0.3 1014285
06:00+2зюз6997100 0.5 1013263
09:00+2зюз71196100 2.4 1013314
12:00+3з8128399 0.7 1014442
15:00+3з7108292 0.9 1014428
18:00+2сз687685 0.1 1015408
21:00+1ссз587046 0.1 1017258